Change the Weather History Date:

Friday, November 9, 2012

  Actual Average Record
Temperature  
Mean Temperature 43 °F 42 °F  
Max Temperature 51 °F 53 °F 79 °F (1999)
Min Temperature 34 °F 30 °F 11 °F (1945)
Degree Days  
Heating Degree Days 22 23  
Month to date heating degree days 173 192  
Since 1 July heating degree days 694 715  
Cooling Degree Days 0 0  
Month to date cooling degree days 0 0  
Year to date cooling degree days 1507 1034  
Moisture  
Dew Point 36 °F    
Average Humidity 83    
Maximum Humidity 100    
Minimum Humidity 66    
Precipitation  
Precipitation 0.00 in 0.03 in 1.81 in (1919)
Month to date precipitation T 0.38  
Year to date precipitation 9.36 25.24  
Snow  
Snow 0.00 in 0.10 in 8.60 in (1946)
Month to date snowfall 0.0 0.7  
Since 1 July snowfall T 1.8  
Since 1 September snowfall T 1.8  
Snow Depth 0.00 in    
Sea Level Pressure  
Sea Level Pressure 29.79 in    
Wind  
Wind Speed 9 mph (North)    
Max Wind Speed 16 mph    
Max Gust Speed 20 mph    
Visibility 6 miles    
Events      
T = Trace of Precipitation, MM = Missing Value Source: NWS Daily Summary

Daily Weather History Graph

Daily Weather History Graph

Search for Another Location

Airport or City:

Trip Planner

Search our weather history database for the weather conditions in past years. The results will help you decide how hot, cold, wet, or windy it might be!

Date:

Astronomy

Nov. 09, 2012 Rise Set
Actual Time 7:14 AM CST 5:19 PM CST
Civil Twilight 6:45 AM CST 5:48 PM CST
Nautical Twilight 6:12 AM CST 6:21 PM CST
Astronomical Twilight 5:39 AM CST 6:53 PM CST
Moon 2:12 AM CST (11/9) 2:35 PM CST (11/9)
Length of Visible Light 11h 03m
Length of Day
10h 05m
Waning Crescent, 23% of the Moon is Illuminated
Nov 9
Waning Crescent
Nov 13
New
Nov 20
First Quarter
Nov 28
Full
Dec 6
Last Quarter

Hourly Weather History & Observations

Time (CST) Temp. Windchill Dew Point Humidity Pressure Visibility Wind Dir Wind Speed Gust Speed Precip Events Conditions
12:53 AM 37.9 °F 32.7 °F 30.9 °F 76% 29.86 in 10.0 mi North 6.9 mph - N/A   Clear
1:53 AM 36.0 °F 30.3 °F 30.0 °F 79% 29.85 in 10.0 mi North 6.9 mph - N/A   Clear
2:53 AM 36.0 °F 30.3 °F 32.0 °F 86% 29.85 in 10.0 mi North 6.9 mph - N/A   Clear
3:53 AM 35.1 °F 27.9 °F 32.0 °F 89% 29.85 in 9.0 mi North 9.2 mph - N/A   Clear
4:53 AM 35.1 °F 26.9 °F 33.1 °F 92% 29.87 in 9.0 mi North 11.5 mph - N/A   Clear
5:53 AM 34.0 °F 25.5 °F 33.1 °F 96% 29.86 in 7.0 mi NNE 11.5 mph - N/A   Clear
6:11 AM 33.8 °F 26.4 °F 33.8 °F 100% 29.86 in 6.0 mi North 9.2 mph - N/A   Scattered Clouds
6:20 AM 35.6 °F 29.2 °F 33.8 °F 93% 29.86 in 5.0 mi North 8.1 mph - N/A   Mostly Cloudy
6:42 AM 35.6 °F 27.1 °F 33.8 °F 93% 29.85 in 3.0 mi North 12.7 mph - N/A   Overcast
6:53 AM 36.0 °F 27.5 °F 35.1 °F 97% 29.89 in 3.0 mi North 12.7 mph - N/A   Overcast
7:37 AM 37.4 °F 29.3 °F 35.6 °F 93% 29.86 in 2.0 mi NNE 12.7 mph - N/A   Overcast
7:53 AM 37.0 °F 28.5 °F 36.0 °F 96% 29.88 in 2.0 mi NNE 13.8 mph - N/A   Overcast
8:53 AM 37.9 °F 29.6 °F 37.0 °F 97% 29.88 in 2.5 mi NNE 13.8 mph - N/A   Overcast
9:53 AM 39.0 °F 31.4 °F 37.0 °F 93% 29.85 in 4.0 mi NE 12.7 mph - N/A   Overcast
10:30 AM 39.2 °F 32.0 °F 37.4 °F 93% 29.83 in 4.0 mi NNE 11.5 mph - N/A   Overcast
10:53 AM 41.0 °F 34.7 °F 37.0 °F 86% 29.87 in 5.0 mi North 10.4 mph - N/A   Overcast
11:53 AM 41.0 °F 37.1 °F 37.9 °F 89% 29.85 in 6.0 mi NNE 5.8 mph - N/A   Overcast
12:53 PM 44.1 °F 38.1 °F 37.9 °F 79% 29.80 in 6.0 mi NE 11.5 mph - N/A   Haze
1:40 PM 46.4 °F 41.5 °F 37.4 °F 71% 29.74 in 7.0 mi NNE 10.4 mph - N/A   Overcast
1:53 PM 46.0 °F 41.0 °F 39.0 °F 76% 29.77 in 8.0 mi NE 10.4 mph - N/A   Overcast
2:53 PM 48.0 °F - 39.9 °F 74% 29.74 in 7.0 mi East 9.2 mph - N/A   Overcast
3:11 PM 48.2 °F - 39.2 °F 71% 29.71 in 8.0 mi East 9.2 mph - N/A   Scattered Clouds
3:53 PM 51.1 °F - 41.0 °F 68% 29.74 in 9.0 mi East 5.8 mph - N/A   Clear
4:53 PM 50.0 °F - 39.9 °F 68% 29.73 in 9.0 mi North 4.6 mph - N/A   Clear
5:53 PM 43.0 °F 39.5 °F 37.0 °F 80% 29.74 in 8.0 mi NNW 5.8 mph - N/A   Clear
6:53 PM 42.1 °F 37.7 °F 37.9 °F 85% 29.73 in 7.0 mi North 6.9 mph - N/A   Clear
7:53 PM 39.9 °F 35.8 °F 37.0 °F 89% 29.70 in 7.0 mi North 5.8 mph - N/A   Clear
8:53 PM 39.9 °F 35.1 °F 37.0 °F 89% 29.67 in 6.0 mi North 6.9 mph - N/A   Clear
9:53 PM 41.0 °F 33.5 °F 37.9 °F 89% 29.67 in 6.0 mi SW 13.8 mph 18.4 mph N/A   Clear
10:53 PM 37.4 °F 32.8 °F 35.6 °F 93% 29.62 in 6.0 mi NW 5.8 mph - N/A   Clear
11:53 PM 35.1 °F 31.0 °F 34.0 °F 96% 29.63 in 5.0 mi West 4.6 mph - N/A   Clear